Greenville, SC

9:45 PM EDT on July 24, 2017 (GMT -0400)
Donaldson Center

Weather History for KGYH - February, 2013

Change the Weather History Date:

Wednesday, February 13, 2013

  Actual Average (KGMU) Record (KGMU)
Temperature  
Mean Temperature 43 °F -  
Max Temperature 51 °F 52 °F 69 °F (2009)
Min Temperature 35 °F 35 °F 26 °F (2006)
Degree Days  
Heating Degree Days 22    
Moisture  
Dew Point 42 °F    
Average Humidity 92    
Maximum Humidity 100    
Minimum Humidity 76    
Precipitation  
Precipitation 0.00 in - - ()
Sea Level Pressure  
Sea Level Pressure 29.81 in    
Wind  
Wind Speed 5 mph (NE)    
Max Wind Speed 17 mph    
Max Gust Speed 25 mph    
Visibility 8 miles    
Events Rain    
Averages and records for this station are not official NWS values.
T = Trace of Precipitation, MM = Missing Value Source: NWS Daily Summary

Daily Weather History Graph

Daily Weather History Graph

Search for Another Location

Airport or City:

Trip Planner

Search our weather history database for the weather conditions in past years. The results will help you decide how hot, cold, wet, or windy it might be!

Date:

Astronomy

Feb. 13, 2013 Rise Set
Actual Time 7:16 AM EST 6:10 PM EST
Civil Twilight 6:51 AM EST 6:36 PM EST
Nautical Twilight 6:21 AM EST 7:06 PM EST
Astronomical Twilight 5:52 AM EST 7:35 PM EST
Moon 8:56 AM EST (2/13) 9:59 PM EST (2/13)
Length of Visible Light 11h 45m
Length of Day
10h 53m
Waxing Crescent, 13% of the Moon is Illuminated
Feb 13
Waxing Crescent
Feb 17
First Quarter
Feb 25
Full
Mar 4
Last Quarter
Mar 11
New

Hourly Weather History & Observations

Time (EST) Temp. Windchill Dew Point Humidity Pressure Visibility Wind Dir Wind Speed Gust Speed Precip Events Conditions
12:35 AM 46.4 °F 44.3 °F 44.6 °F 93% 29.90 in 10.0 mi ENE 4.6 mph - N/A   Mostly Cloudy
12:55 AM 46.4 °F 43.5 °F 44.6 °F 93% 29.88 in 10.0 mi ENE 5.8 mph - N/A   Overcast
1:15 AM 44.6 °F 41.4 °F 44.6 °F 100% 29.88 in 10.0 mi ENE 5.8 mph - N/A   Drizzle
1:35 AM 44.6 °F 41.4 °F 44.6 °F 100% 29.86 in 10.0 mi ENE 5.8 mph - N/A   Overcast
1:55 AM 44.6 °F 41.4 °F 44.6 °F 100% 29.85 in 10.0 mi East 5.8 mph - N/A   Overcast
2:15 AM 44.6 °F 43.1 °F 42.8 °F 93% 29.86 in 10.0 mi NE 3.5 mph - N/A   Overcast
2:35 AM 44.6 °F - 42.8 °F 93% 29.86 in 10.0 mi Calm Calm - N/A   Overcast
2:55 AM 44.6 °F - 42.8 °F 93% 29.86 in 10.0 mi Calm Calm - N/A   Overcast
3:15 AM 44.6 °F 42.2 °F 42.8 °F 93% 29.83 in 10.0 mi East 4.6 mph - N/A   Overcast
3:35 AM 44.6 °F 43.1 °F 42.8 °F 93% 29.83 in 10.0 mi NE 3.5 mph - N/A   Light Drizzle
3:55 AM 44.6 °F 42.2 °F 42.8 °F 93% 29.82 in 10.0 mi East 4.6 mph - N/A   Drizzle
4:15 AM 44.6 °F 43.1 °F 42.8 °F 93% 29.82 in 10.0 mi East 3.5 mph - N/A   Overcast
4:35 AM 44.6 °F 41.4 °F 42.8 °F 93% 29.81 in 7.0 mi ENE 5.8 mph - N/A   Overcast
4:55 AM 44.6 °F 42.2 °F 42.8 °F 93% 29.82 in 4.0 mi NNE 4.6 mph - N/A   Overcast
5:15 AM 42.8 °F 40.1 °F 42.8 °F 100% 29.79 in 4.0 mi NNE 4.6 mph - N/A   Light Drizzle
5:35 AM 42.8 °F 39.3 °F 42.8 °F 100% 29.79 in 4.0 mi NE 5.8 mph - N/A   Drizzle
6:47 AM 44.6 °F 41.4 °F 42.8 °F 93% 29.79 in 4.0 mi ENE 5.8 mph - N/A   Overcast
7:24 AM 44.6 °F 41.4 °F 42.8 °F 93% 29.79 in 2.0 mi ENE 5.8 mph - N/A   Overcast
7:47 AM 44.6 °F 42.2 °F 42.8 °F 93% 29.80 in 2.0 mi NE 4.6 mph - N/A   Overcast
8:47 AM 44.6 °F 43.1 °F 44.6 °F 100% 29.78 in 1.0 mi ENE 3.5 mph - N/A   Overcast
9:47 AM 44.6 °F 43.1 °F 44.6 °F 100% 29.79 in 1.0 mi NNE 3.5 mph - N/A Rain Light Rain
10:47 AM 44.6 °F 40.7 °F 44.6 °F 100% 29.73 in 2.0 mi East 6.9 mph - N/A Rain Light Rain
11:47 AM 44.6 °F - 44.6 °F 100% 29.76 in 1.0 mi Calm Calm - N/A Rain Light Rain
12:47 PM 46.4 °F 45.2 °F 46.4 °F 100% 29.72 in 5.0 mi WSW 3.5 mph - N/A   Overcast
1:47 PM 46.4 °F 41.1 °F 46.4 °F 100% 29.72 in 10.0 mi WSW 11.5 mph - N/A   Overcast
2:47 PM 48.2 °F - 46.4 °F 93% 29.71 in 10.0 mi WSW 11.5 mph 18.4 mph N/A   Overcast
3:07 PM 48.2 °F - 46.4 °F 93% 29.70 in 10.0 mi WSW 13.8 mph 20.7 mph N/A   Overcast
3:47 PM 48.2 °F - 46.4 °F 93% 29.69 in 10.0 mi WSW 12.7 mph 23.0 mph N/A   Mostly Cloudy
4:47 PM 51.8 °F - 46.4 °F 82% 29.70 in 10.0 mi WSW 13.8 mph 25.3 mph N/A   Scattered Clouds
5:47 PM 51.8 °F - 44.6 °F 76% 29.72 in 10.0 mi WSW 17.3 mph 23.0 mph N/A   Clear
7:55 PM 44.6 °F 40.2 °F 42.8 °F 93% 29.79 in 10.0 mi WSW 8.1 mph - N/A   Clear
8:15 PM 44.6 °F 43.1 °F 41.0 °F 87% 29.80 in 10.0 mi West 3.5 mph - N/A   Clear
8:35 PM 41.0 °F 38.0 °F 39.2 °F 93% 29.82 in 10.0 mi West 4.6 mph - N/A   Clear
8:47 PM 42.8 °F 41.1 °F 39.2 °F 87% 29.82 in 10.0 mi West 3.5 mph - N/A   Clear
8:55 PM 41.0 °F 37.1 °F 37.4 °F 87% 29.83 in 10.0 mi West 5.8 mph - N/A   Clear
9:15 PM 41.0 °F - 37.4 °F 87% 29.84 in 10.0 mi Calm Calm - N/A   Clear
9:55 PM 39.2 °F - 35.6 °F 87% 29.86 in 10.0 mi Calm Calm - N/A   Clear
10:15 PM 37.4 °F - 35.6 °F 93% 29.86 in 10.0 mi Calm Calm - N/A   Clear
10:35 PM 41.0 °F - 35.6 °F 81% 29.86 in 10.0 mi Calm Calm - N/A   Clear
10:55 PM 41.0 °F - 35.6 °F 81% 29.87 in 10.0 mi Calm Calm - N/A   Clear
11:15 PM 41.0 °F - 33.8 °F 76% 29.88 in 10.0 mi Calm Calm - N/A   Clear
11:35 PM 35.6 °F - 33.8 °F 93% 29.89 in 10.0 mi Calm Calm - N/A   Clear
11:55 PM 37.4 °F - 33.8 °F 87% 29.89 in 10.0 mi Calm Calm - N/A   Clear